SCP
0 -0 -0 -0 -0 -0 -0 -0 -0 -0 -0 -0 -0 -0 -0 -0 -0 -0 -0 -0 -0 -0 -0 -0 -0 -0 -0 -0 -0 -0 -0 0 0 0 0 -0 -0 0 0 -0 -0 -0 0
-0 -0 -0 -0 -0 -0 -0 0 0 -0 -0 -0 -0 -0 -0 -0 -0 -0 -0 -0 -0 -0 -0 -0 -0 -0 -0 -0 -0 0 0 -0 -0 0 -0 0 -0 -0 -0 0 -0 -0 0
-0 -0 -0 -0 -0 -0 0 0 0 -0 -0 -0 -0 -0 -0 -0 -0 -0 -0 -0 -0 -0 -0 -0 -0 -0 -0 -0 -0 -0 0 -0 -0 0 -0 -0 -0 -0 -0 -0 0 0 0
-0 -0 -0 -0 -0 0 0 0 0 -0 -0 -0 -0 -0 -0 -0 -0 -0 -0 -0 -0 -0 -0 -0 -0 -0 -0 0 0 0 0 -0 -0 0 -0 -0 -0 -0 0 0 0 0 0
-0 -0 -0 -0 -0 0 0 0 0 0 -0 -0 -0 -0 -0 -0 -0 -0 -0 -0 -0 -0 -0 -0 -0 0 0 0 0 0 -0 0 -0 -0 -0 -0 -0 0 0 0 0 0 0
0 0 -0 -0 -0 0 0 0 0 0 -0 -0 0 -0 -0 -0 -0 -0 -0 0 0 -0 -0 0 0 0 0 0 0 0 0 0 -0 -0 -0 -0 -0 -0 -0 -0 0 0 0
0 0 -0 -0 -0 0 0 0 0 0 0 -0 0 0 0 0 0 0 0 0 0 0 0 0 0 0 0 0 0 0 0 0 -0 -0 -0 -0 -0 -0 0 -0 -0 -0 -0
0 0 0 0 0 0 0 0 0 0 0 0 0 0 0 0 0 0 0 0 0 0 0 0 0 0 0 -0 -0 -0 -0 -0 -0 -0 -0 -0 -0 0 0 0 0 -0 -0
0 0 0 0 0 0 0 0 0 0 0 0 0 0 0 0 0 0 0 0 0 0 0 0 0 -0 -0 -0 -0 -0 -0 -0 -0 -0 -0 0 0 0 0 0 0 0 0
0 0 0 0 0 0 0 0 0 0 0 0 0 0 0 0 0 0 0 0 0 0 0 0 -0 -0 -0 -0 -0 -0 -0 -0 -0 -0 -0 0 0 -0 0 0 0 0 0
0 0 0 0 0 0 0 0 0 0 0 0 0 0 0 0 0 0 0 0 0 0 0 0 -0 -0 -0 -0 -0 -0 -0 0 0 0 0 -0 -0 -0 -0 -0 -0 -0 -0
0 0 0 0 0 0 0 0 0 0 0 0 0 0 0 0 0 0 0 0 0 0 0 0 -0 -0 0 0 0 0 0 0 0 0 0 0 -0 -0 -0 -0 -0 -0 -0
0 0 0 0 0 0 0 0 0 0 0 0 0 0 0 0 0 0 0 0 0 0 0 0 0 0 0 0 0 0 0 0 0 0 0 0 0 0 -0 -0 -0 0 -0
0 0 0 0 0 0 0 0 0 0 0 0 0 0 0 0 0 0 0 0 0 0 0 0 0 0 0 0 0 0 0 0 0 0 0 0 0 0 -0 -0 -0 -0 -0
0 0 0 0 0 0 0 0 0 0 0 0 0 0 0 0 0 0 0 0 0 0 0 0 0 0 0 0 0 0 0 0 0 0 0 0 0 -0 0 -0 0 0 0
0 0 0 0 0 0 0 0 0 0 0 0 0 0 0 0 0 0 0 0 0 0 0 0 0 0 0 0 0 0 0 0 0 0 0 0 0 0 0 0 0 0 0
0 0 0 0 0 0 0 0 0 0 0 0 0 0 0 0 0 0 0 0 0 0 0 0 0 0 0 0 0 0 0 0 0 0 0 0 0 0 0 0 0 0 0
0 0 0 0 0 0 0 0 0 0 0 0 0 0 0 0 0 0 0 0 0 0 0 0 0 0 0 0 0 0 0 0 0 0 0 0 0 0 0 0 0 0 0
0 0 0 0 0 0 0 0 0 0 0 0 0 0 0 0 0 0 0 0 0 0 0 0 0 0 0 0 0 0 0 0 0 0 0 0 0 0 0 0 0 0 0
0 0 0 0 0 0 0 0 0 0 0 0 0 0 0 0 0 0 0 0 0 0 0 0 0 0 0 0 0 0 0 0 0 0 0 0 0 0 0 0 0 0 0
0 0 0 0 0 0 0 0 0 0 0 0 0 0 0 0 0 0 0 0 0 0 0 0 0 0 0 0 0 0 0 0 0 0 0 0 0 0 0 0 0 0 0
0 0 0 0 0 0 0 0 0 0 0 0 0 0 0 0 0 0 0 0 0 0 0 0 0 0 0 0 0 0 0 0 0 0 0 0 0 0 0 0 0 0 0
0 0 0 0 0 0 0 0 0 0 0 0 0 0 0 0 0 0 0 0 0 0 0 0 0 0 0 0 0 0 0 0 0 0 0 0 0 0 0 0 0 0 0
1 1 0 0 0 0 0 0 0 0 0 0 0 0 0 0 0 0 0 0 0 0 0 0 0 0 0 0 0 0 0 0 0 0 0 0 0 0 0 0 0 0 0
0 0 1 0 0 0 0 0 0 0 0 0 0 0 0 0 0 0 0 0 0 0 0 0 0 0 0 0 0 0 0 0 0 0 0 0 0 0 0 0 0 0 0
-0 0 0 0 0 0 0 0 0 0 0 0 0 0 0 0 0 0 0 0 0 0 0 0 0 0 0 0 0 0 0 0 0 0 0 0 0 0 0 0 0 0 0
Wind_Speed_500mb
49 45 42 40 37 32 26 27 38 38 35 31 31 24 16 10 9 11 14 22 25 26 27 24 26 26 30 28 29 30 28 27 28 35 31 27 31 31 27 24 22 22 21
45 47 42 41 39 34 28 38 45 39 36 36 29 21 15 10 8 11 17 23 23 25 24 24 26 29 30 33 30 31 31 31 28 27 23 24 24 26 26 23 22 21 20
44 46 43 42 39 35 32 49 47 43 38 32 25 19 13 8 7 14 19 26 25 23 23 25 26 28 28 27 24 24 26 28 28 25 23 21 22 21 20 19 19 19 19
40 45 44 43 39 37 37 52 51 41 35 30 24 18 12 8 9 16 21 24 24 22 22 24 25 25 25 23 21 21 23 25 23 23 21 20 18 17 16 16 15 13 13
40 43 44 45 42 40 41 52 49 40 33 28 24 18 10 7 11 19 21 23 24 22 21 23 24 23 21 18 17 15 17 19 18 18 17 16 15 15 13 12 11 10 10
40 44 46 46 44 44 47 50 48 39 34 29 25 18 11 7 9 19 18 22 22 20 20 22 21 20 18 16 14 14 11 13 13 12 12 13 12 11 10 9 9 10 11
41 48 48 47 47 48 52 50 41 42 38 33 25 19 14 9 7 10 13 13 16 16 16 18 19 18 17 14 11 8 8 8 9 7 8 9 9 10 9 10 10 10 9
37 50 48 47 47 50 56 55 47 46 41 32 25 21 16 10 8 10 15 15 15 15 15 15 15 15 14 12 9 6 5 3 4 4 4 5 7 10 11 11 11 11 12
41 50 51 49 49 50 57 60 51 45 40 32 29 24 19 15 12 11 16 19 15 14 13 13 13 13 13 12 9 6 4 4 3 1 1 3 3 5 8 10 10 12 12
43 52 53 54 54 54 57 62 56 47 45 39 34 27 23 20 17 16 18 17 18 14 13 12 11 11 11 10 9 8 8 8 7 5 3 4 4 5 8 9 9 10 12
48 56 58 59 58 56 58 61 56 53 49 41 35 30 28 25 23 22 20 20 19 17 15 13 13 13 13 13 13 12 12 11 8 8 7 7 5 7 9 10 12 12 13
60 61 63 64 64 61 61 63 60 59 54 44 39 35 33 31 28 25 24 23 23 20 19 16 16 15 15 16 14 12 11 10 10 10 9 8 8 10 12 12 13 14 14
62 60 67 68 67 67 67 67 65 63 56 50 45 40 37 35 33 32 28 26 25 23 22 18 17 15 16 15 14 15 14 13 12 11 10 10 11 12 13 14 15 14 14
66 62 62 69 69 72 70 69 68 66 61 55 48 44 43 41 39 34 29 24 23 22 22 20 18 18 18 17 17 16 15 12 12 11 10 12 12 13 14 14 13 12 12
68 64 64 64 72 74 73 72 70 67 63 57 52 48 45 43 39 35 29 29 26 24 23 22 21 20 20 19 19 17 15 15 14 13 12 13 12 12 12 11 9 8 9
71 68 64 65 66 73 75 75 74 70 65 60 56 50 46 43 41 39 37 34 30 28 25 24 23 23 22 21 19 18 17 17 16 16 16 14 13 12 10 9 9 9 13
75 71 68 66 63 72 77 74 73 70 66 63 59 53 49 44 43 40 36 36 28 27 28 27 26 24 23 22 21 22 22 22 23 21 21 18 15 14 13 8 10 12 16
76 75 73 69 66 68 73 74 73 70 67 65 63 58 53 46 42 41 40 38 31 33 33 32 29 29 28 28 26 25 26 26 25 26 26 23 20 17 18 12 10 14 18
81 79 78 76 72 70 66 66 69 69 67 63 66 65 59 53 43 42 41 37 35 37 37 33 31 29 28 26 26 26 27 29 27 26 26 26 24 19 16 14 14 15 23
80 86 83 82 77 73 68 65 65 67 67 59 58 62 59 54 50 44 42 39 40 41 38 35 32 31 29 25 27 29 30 27 22 26 29 26 23 22 13 13 15 21 27
76 86 89 85 84 81 81 81 78 80 75 69 62 60 58 55 57 50 43 43 46 46 41 37 34 35 33 25 25 27 27 26 25 20 26 29 22 23 17 17 22 28 27
64 75 87 88 91 90 90 87 85 79 78 76 73 70 69 65 59 55 50 47 50 50 46 43 41 37 30 22 28 25 25 27 21 14 13 20 28 26 27 28 26 27 25
42 57 82 90 94 99 99 97 91 85 81 84 93 79 75 71 68 62 57 52 51 53 53 48 45 39 32 29 33 30 12 15 9 14 14 21 34 31 31 31 21 21 24
40 51 57 86 96 102 103 105 100 98 96 99 95 89 80 77 77 73 68 59 54 53 55 53 49 44 42 42 41 45 47 43 19 12 22 30 33 37 29 13 16 26 33
54 41 47 69 86 98 108 104 104 103 98 88 89 87 85 80 80 78 74 64 59 55 54 52 51 53 52 52 51 51 50 52 54 54 27 28 29 16 9 16 23 19 21
55 47 33 38 64 89 97 101 106 104 100 93 92 89 88 84 87 86 80 73 64 60 59 53 48 54 55 57 58 56 56 57 52 46 48 32 21 7 14 17 17 17 17
Wind_Direction_500mb
182 187 184 181 183 191 179 168 157 154 163 161 160 156 152 147 135 131 131 129 115 110 113 107 110 111 116 118 108 102 108 110 108 111 99 85 79 84 87 87 86 79 74
178 181 186 181 189 190 174 158 148 155 159 159 157 157 156 156 137 133 125 122 125 113 110 110 111 116 117 116 110 106 102 102 108 108 91 91 87 77 82 86 86 85 81
180 177 186 184 188 186 171 159 154 160 163 163 164 164 161 144 133 133 127 126 121 120 118 115 113 116 120 118 115 111 107 103 100 99 91 83 79 77 79 73 73 69 65
181 181 185 185 186 184 173 168 160 167 178 173 170 169 173 158 142 133 126 128 126 120 121 120 120 122 123 119 110 103 108 104 99 94 89 84 80 77 71 67 67 66 64
184 185 184 185 186 181 174 173 169 172 183 186 176 177 176 163 142 143 133 127 136 129 128 127 127 128 129 124 113 93 85 100 100 89 84 80 75 69 65 62 59 54 48
186 186 185 186 188 184 176 172 176 178 185 186 182 184 183 177 155 149 147 144 135 137 132 133 128 128 129 131 125 123 108 96 93 92 84 74 67 60 50 41 34 25 22
188 185 187 190 191 186 179 175 180 183 190 190 190 193 188 191 179 177 160 158 159 152 135 134 132 134 136 137 139 130 114 98 88 81 72 67 50 36 25 15 9 4 0
195 187 189 191 191 186 182 178 179 183 190 201 195 191 196 207 211 207 186 175 166 159 150 143 141 142 145 145 148 136 134 121 105 81 82 55 40 25 16 6 355 346 349
195 195 191 190 185 185 186 185 187 190 196 199 197 203 210 221 222 209 194 195 186 176 164 157 155 158 161 166 169 178 176 186 187 147 90 1 3 14 16 15 358 348 343
197 199 195 190 186 187 186 189 192 194 197 191 206 215 222 229 225 221 208 201 194 185 181 175 175 179 183 186 192 209 217 216 228 258 291 293 324 355 7 359 356 347 340
198 203 200 195 192 190 190 191 195 191 196 200 212 220 231 235 234 227 218 205 201 200 195 195 200 200 200 201 210 219 221 227 249 285 281 295 312 326 338 338 335 332 327
200 202 204 201 197 194 194 195 196 198 204 212 219 226 234 237 235 226 218 215 205 211 209 210 216 217 213 215 224 232 238 249 265 280 276 289 309 314 316 319 314 313 314
204 203 204 205 203 201 200 200 201 203 209 216 223 230 234 234 227 224 221 214 213 214 213 219 223 225 225 225 229 238 247 258 266 270 279 292 301 302 300 298 304 305 309
208 209 206 206 207 208 207 206 208 210 213 219 225 231 231 226 222 220 216 212 212 217 221 226 223 225 226 229 238 245 248 250 254 264 279 287 289 296 298 302 303 306 310
215 212 211 209 210 212 211 212 213 215 218 223 226 229 227 224 223 220 217 215 215 225 226 225 226 230 231 237 246 250 252 252 257 262 265 270 280 282 285 290 301 311 323
220 220 215 216 217 216 215 216 217 219 223 225 224 224 226 225 224 223 221 221 224 228 224 225 228 233 237 244 252 260 259 260 261 258 259 263 272 274 268 277 298 324 330
227 223 221 221 223 220 219 221 221 222 223 225 225 223 224 226 225 222 224 225 223 222 224 224 227 235 239 248 252 256 251 246 249 250 253 262 262 253 242 283 326 315 309
228 228 224 224 226 222 223 224 224 223 225 227 227 226 226 224 224 224 226 225 222 224 224 226 230 235 240 245 249 248 251 256 262 264 259 259 254 241 237 258 283 294 306
235 233 228 225 227 226 225 224 226 225 226 231 232 229 227 224 223 226 227 228 227 227 230 233 237 243 249 256 259 261 261 263 268 265 266 267 253 240 227 236 268 284 298
238 238 237 228 229 229 229 227 229 226 226 230 237 232 226 223 223 227 229 228 228 230 232 234 239 244 252 260 262 263 270 275 267 262 259 254 237 216 239 258 277 272 301
239 238 240 235 229 228 226 225 225 227 224 225 234 235 232 230 228 229 230 230 231 232 233 237 242 246 250 250 267 276 284 286 290 264 258 247 228 217 237 246 258 276 297
255 243 239 240 233 233 232 231 231 230 228 225 230 231 232 232 235 231 233 234 233 235 235 235 239 247 252 246 255 271 286 290 279 271 234 210 206 227 235 241 251 267 287
282 256 245 241 239 235 232 230 229 232 233 231 233 233 230 232 234 236 238 238 237 237 238 240 241 242 242 242 246 246 254 241 253 230 242 223 224 234 234 236 247 279 297
291 286 267 247 240 238 232 230 231 230 229 233 233 235 231 230 235 236 237 238 237 238 239 240 241 237 234 238 244 246 248 249 247 252 251 235 229 223 225 253 278 293 300
275 282 270 272 260 240 237 233 235 234 237 235 233 234 238 233 233 235 236 235 236 236 239 240 239 234 235 242 246 249 251 252 251 250 228 223 211 206 211 264 286 291 299
256 259 281 269 265 252 240 235 233 235 236 233 235 238 242 242 236 235 237 237 237 239 241 239 231 237 241 245 250 255 249 244 246 250 245 209 194 202 263 291 278 276 284
Wind_Speed_850mb
49 45 42 40 37 32 26 27 38 38 35 31 31 24 16 10 9 11 14 22 25 26 27 24 26 26 30 28 29 30 28 27 28 35 31 27 31 31 27 24 22 22 21
45 47 42 41 39 34 28 38 45 39 36 36 29 21 15 10 8 11 17 23 23 25 24 24 26 29 30 33 30 31 31 31 28 27 23 24 24 26 26 23 22 21 20
44 46 43 42 39 35 32 49 47 43 38 32 25 19 13 8 7 14 19 26 25 23 23 25 26 28 28 27 24 24 26 28 28 25 23 21 22 21 20 19 19 19 19
40 45 44 43 39 37 37 52 51 41 35 30 24 18 12 8 9 16 21 24 24 22 22 24 25 25 25 23 21 21 23 25 23 23 21 20 18 17 16 16 15 13 13
40 43 44 45 42 40 41 52 49 40 33 28 24 18 10 7 11 19 21 23 24 22 21 23 24 23 21 18 17 15 17 19 18 18 17 16 15 15 13 12 11 10 10
40 44 46 46 44 44 47 50 48 39 34 29 25 18 11 7 9 19 18 22 22 20 20 22 21 20 18 16 14 14 11 13 13 12 12 13 12 11 10 9 9 10 11
41 48 48 47 47 48 52 50 41 42 38 33 25 19 14 9 7 10 13 13 16 16 16 18 19 18 17 14 11 8 8 8 9 7 8 9 9 10 9 10 10 10 9
37 50 48 47 47 50 56 55 47 46 41 32 25 21 16 10 8 10 15 15 15 15 15 15 15 15 14 12 9 6 5 3 4 4 4 5 7 10 11 11 11 11 12
41 50 51 49 49 50 57 60 51 45 40 32 29 24 19 15 12 11 16 19 15 14 13 13 13 13 13 12 9 6 4 4 3 1 1 3 3 5 8 10 10 12 12
43 52 53 54 54 54 57 62 56 47 45 39 34 27 23 20 17 16 18 17 18 14 13 12 11 11 11 10 9 8 8 8 7 5 3 4 4 5 8 9 9 10 12
48 56 58 59 58 56 58 61 56 53 49 41 35 30 28 25 23 22 20 20 19 17 15 13 13 13 13 13 13 12 12 11 8 8 7 7 5 7 9 10 12 12 13
60 61 63 64 64 61 61 63 60 59 54 44 39 35 33 31 28 25 24 23 23 20 19 16 16 15 15 16 14 12 11 10 10 10 9 8 8 10 12 12 13 14 14
62 60 67 68 67 67 67 67 65 63 56 50 45 40 37 35 33 32 28 26 25 23 22 18 17 15 16 15 14 15 14 13 12 11 10 10 11 12 13 14 15 14 14
66 62 62 69 69 72 70 69 68 66 61 55 48 44 43 41 39 34 29 24 23 22 22 20 18 18 18 17 17 16 15 12 12 11 10 12 12 13 14 14 13 12 12
68 64 64 64 72 74 73 72 70 67 63 57 52 48 45 43 39 35 29 29 26 24 23 22 21 20 20 19 19 17 15 15 14 13 12 13 12 12 12 11 9 8 9
71 68 64 65 66 73 75 75 74 70 65 60 56 50 46 43 41 39 37 34 30 28 25 24 23 23 22 21 19 18 17 17 16 16 16 14 13 12 10 9 9 9 13
75 71 68 66 63 72 77 74 73 70 66 63 59 53 49 44 43 40 36 36 28 27 28 27 26 24 23 22 21 22 22 22 23 21 21 18 15 14 13 8 10 12 16
76 75 73 69 66 68 73 74 73 70 67 65 63 58 53 46 42 41 40 38 31 33 33 32 29 29 28 28 26 25 26 26 25 26 26 23 20 17 18 12 10 14 18
81 79 78 76 72 70 66 66 69 69 67 63 66 65 59 53 43 42 41 37 35 37 37 33 31 29 28 26 26 26 27 29 27 26 26 26 24 19 16 14 14 15 23
80 86 83 82 77 73 68 65 65 67 67 59 58 62 59 54 50 44 42 39 40 41 38 35 32 31 29 25 27 29 30 27 22 26 29 26 23 22 13 13 15 21 27
76 86 89 85 84 81 81 81 78 80 75 69 62 60 58 55 57 50 43 43 46 46 41 37 34 35 33 25 25 27 27 26 25 20 26 29 22 23 17 17 22 28 27
64 75 87 88 91 90 90 87 85 79 78 76 73 70 69 65 59 55 50 47 50 50 46 43 41 37 30 22 28 25 25 27 21 14 13 20 28 26 27 28 26 27 25
42 57 82 90 94 99 99 97 91 85 81 84 93 79 75 71 68 62 57 52 51 53 53 48 45 39 32 29 33 30 12 15 9 14 14 21 34 31 31 31 21 21 24
40 51 57 86 96 102 103 105 100 98 96 99 95 89 80 77 77 73 68 59 54 53 55 53 49 44 42 42 41 45 47 43 19 12 22 30 33 37 29 13 16 26 33
54 41 47 69 86 98 108 104 104 103 98 88 89 87 85 80 80 78 74 64 59 55 54 52 51 53 52 52 51 51 50 52 54 54 27 28 29 16 9 16 23 19 21
55 47 33 38 64 89 97 101 106 104 100 93 92 89 88 84 87 86 80 73 64 60 59 53 48 54 55 57 58 56 56 57 52 46 48 32 21 7 14 17 17 17 17
Wind_Direction_850mb
182 187 184 181 183 191 179 168 157 154 163 161 160 156 152 147 135 131 131 129 115 110 113 107 110 111 116 118 108 102 108 110 108 111 99 85 79 84 87 87 86 79 74
178 181 186 181 189 190 174 158 148 155 159 159 157 157 156 156 137 133 125 122 125 113 110 110 111 116 117 116 110 106 102 102 108 108 91 91 87 77 82 86 86 85 81
180 177 186 184 188 186 171 159 154 160 163 163 164 164 161 144 133 133 127 126 121 120 118 115 113 116 120 118 115 111 107 103 100 99 91 83 79 77 79 73 73 69 65
181 181 185 185 186 184 173 168 160 167 178 173 170 169 173 158 142 133 126 128 126 120 121 120 120 122 123 119 110 103 108 104 99 94 89 84 80 77 71 67 67 66 64
184 185 184 185 186 181 174 173 169 172 183 186 176 177 176 163 142 143 133 127 136 129 128 127 127 128 129 124 113 93 85 100 100 89 84 80 75 69 65 62 59 54 48
186 186 185 186 188 184 176 172 176 178 185 186 182 184 183 177 155 149 147 144 135 137 132 133 128 128 129 131 125 123 108 96 93 92 84 74 67 60 50 41 34 25 22
188 185 187 190 191 186 179 175 180 183 190 190 190 193 188 191 179 177 160 158 159 152 135 134 132 134 136 137 139 130 114 98 88 81 72 67 50 36 25 15 9 4 0
195 187 189 191 191 186 182 178 179 183 190 201 195 191 196 207 211 207 186 175 166 159 150 143 141 142 145 145 148 136 134 121 105 81 82 55 40 25 16 6 355 346 349
195 195 191 190 185 185 186 185 187 190 196 199 197 203 210 221 222 209 194 195 186 176 164 157 155 158 161 166 169 178 176 186 187 147 90 1 3 14 16 15 358 348 343
197 199 195 190 186 187 186 189 192 194 197 191 206 215 222 229 225 221 208 201 194 185 181 175 175 179 183 186 192 209 217 216 228 258 291 293 324 355 7 359 356 347 340
198 203 200 195 192 190 190 191 195 191 196 200 212 220 231 235 234 227 218 205 201 200 195 195 200 200 200 201 210 219 221 227 249 285 281 295 312 326 338 338 335 332 327
200 202 204 201 197 194 194 195 196 198 204 212 219 226 234 237 235 226 218 215 205 211 209 210 216 217 213 215 224 232 238 249 265 280 276 289 309 314 316 319 314 313 314
204 203 204 205 203 201 200 200 201 203 209 216 223 230 234 234 227 224 221 214 213 214 213 219 223 225 225 225 229 238 247 258 266 270 279 292 301 302 300 298 304 305 309
208 209 206 206 207 208 207 206 208 210 213 219 225 231 231 226 222 220 216 212 212 217 221 226 223 225 226 229 238 245 248 250 254 264 279 287 289 296 298 302 303 306 310
215 212 211 209 210 212 211 212 213 215 218 223 226 229 227 224 223 220 217 215 215 225 226 225 226 230 231 237 246 250 252 252 257 262 265 270 280 282 285 290 301 311 323
220 220 215 216 217 216 215 216 217 219 223 225 224 224 226 225 224 223 221 221 224 228 224 225 228 233 237 244 252 260 259 260 261 258 259 263 272 274 268 277 298 324 330
227 223 221 221 223 220 219 221 221 222 223 225 225 223 224 226 225 222 224 225 223 222 224 224 227 235 239 248 252 256 251 246 249 250 253 262 262 253 242 283 326 315 309
228 228 224 224 226 222 223 224 224 223 225 227 227 226 226 224 224 224 226 225 222 224 224 226 230 235 240 245 249 248 251 256 262 264 259 259 254 241 237 258 283 294 306
235 233 228 225 227 226 225 224 226 225 226 231 232 229 227 224 223 226 227 228 227 227 230 233 237 243 249 256 259 261 261 263 268 265 266 267 253 240 227 236 268 284 298
238 238 237 228 229 229 229 227 229 226 226 230 237 232 226 223 223 227 229 228 228 230 232 234 239 244 252 260 262 263 270 275 267 262 259 254 237 216 239 258 277 272 301
239 238 240 235 229 228 226 225 225 227 224 225 234 235 232 230 228 229 230 230 231 232 233 237 242 246 250 250 267 276 284 286 290 264 258 247 228 217 237 246 258 276 297
255 243 239 240 233 233 232 231 231 230 228 225 230 231 232 232 235 231 233 234 233 235 235 235 239 247 252 246 255 271 286 290 279 271 234 210 206 227 235 241 251 267 287
282 256 245 241 239 235 232 230 229 232 233 231 233 233 230 232 234 236 238 238 237 237 238 240 241 242 242 242 246 246 254 241 253 230 242 223 224 234 234 236 247 279 297
291 286 267 247 240 238 232 230 231 230 229 233 233 235 231 230 235 236 237 238 237 238 239 240 241 237 234 238 244 246 248 249 247 252 251 235 229 223 225 253 278 293 300
275 282 270 272 260 240 237 233 235 234 237 235 233 234 238 233 233 235 236 235 236 236 239 240 239 234 235 242 246 249 251 252 251 250 228 223 211 206 211 264 286 291 299
256 259 281 269 265 252 240 235 233 235 236 233 235 238 242 242 236 235 237 237 237 239 241 239 231 237 241 245 250 255 249 244 246 250 245 209 194 202 263 291 278 276 284